Temperature
21 20 19 18 17 17 16 15 15 14 14 13 13 13 13 13 13 13 13 13 13 13 14 14 14 14 15 15 15 15 16 16 16 16 17 17 17 18 18 18 18 19 18
21 20 19 18 17 17 16 15 15 14 14 13 13 13 13 13 13 13 13 13 13 13 13 13 14 14 14 15 15 15 15 16 16 16 16 16 17 17 18 18 18 18 18
21 20 19 18 17 16 16 15 15 14 14 13 13 13 13 13 13 13 13 13 13 13 13 13 13 14 14 14 14 15 15 15 16 16 16 16 17 17 18 18 18 18 18
20 19 19 18 17 16 15 15 14 14 13 13 13 12 12 12 12 12 12 13 13 13 13 13 13 13 13 14 14 14 15 15 15 15 16 16 17 17 17 18 18 18 18
20 19 18 17 17 16 15 14 14 13 13 13 12 12 12 12 12 12 12 12 13 13 13 13 13 13 13 13 14 14 14 14 15 15 15 16 16 16 17 17 18 18 18
20 19 18 17 17 16 15 14 14 13 13 13 13 12 12 12 12 12 12 12 12 12 12 12 13 13 13 13 13 14 14 14 14 15 15 15 16 16 16 16 17 18 18
20 19 18 17 17 16 15 14 14 13 13 13 13 12 12 12 12 12 12 12 12 12 12 12 12 12 13 13 13 13 14 14 14 14 15 15 15 16 16 16 16 17 17
20 19 18 17 17 16 15 15 14 14 13 13 13 12 12 12 12 12 12 11 11 12 12 12 12 12 12 13 13 13 13 13 14 14 14 15 15 15 15 15 16 16 16
20 19 18 17 17 16 16 15 14 14 14 13 13 13 12 12 12 11 11 11 11 11 11 12 12 12 12 12 13 13 13 13 13 14 14 14 15 15 15 15 15 16 16
20 19 18 18 17 16 16 15 15 14 14 13 13 13 12 12 12 12 11 11 11 11 11 12 12 12 12 12 12 12 13 13 13 14 14 14 14 15 15 15 15 15 15
20 19 19 18 17 16 16 16 15 15 14 14 13 13 12 12 12 12 11 11 11 11 11 11 11 12 12 12 12 12 12 13 13 13 13 14 14 14 15 15 15 15 15
20 19 19 18 17 17 16 16 16 15 14 14 13 13 13 12 12 12 12 11 11 11 11 11 11 11 11 11 12 12 12 12 13 13 13 13 13 14 14 14 14 15 15
20 19 19 18 17 17 16 16 16 15 15 14 13 13 13 12 12 12 12 11 11 11 11 11 11 11 11 11 11 12 12 12 12 13 13 13 13 13 14 14 14 14 14
20 20 19 18 18 17 17 16 16 15 15 14 14 13 13 13 12 12 11 11 11 11 11 11 11 11 11 11 11 12 12 12 12 12 13 13 13 13 13 14 14 14 14
21 20 19 19 18 18 17 17 16 16 15 15 14 14 13 13 12 12 11 11 11 11 11 11 11 11 11 11 11 12 12 12 12 12 12 12 13 13 13 13 14 14 14
21 20 20 19 19 18 18 17 17 16 16 15 15 14 13 13 12 12 12 11 11 11 11 11 11 11 11 11 11 11 11 12 12 12 12 12 12 13 13 13 13 13 13
20 20 20 19 19 19 18 18 17 16 16 15 15 14 14 13 13 12 12 12 11 11 11 11 11 11 11 11 11 11 11 11 12 12 12 12 12 12 12 13 13 13 13
20 20 19 19 19 19 18 18 17 17 16 16 15 14 14 13 13 13 12 12 12 11 11 11 11 11 11 11 11 11 11 11 11 11 12 12 12 12 12 12 13 13 13
19 19 19 19 19 18 18 18 17 17 17 16 15 15 14 14 13 13 13 12 12 12 12 12 11 11 11 11 11 11 11 11 11 11 11 12 12 12 12 12 12 13 13
19 18 18 18 18 18 18 17 17 17 17 16 16 15 15 14 14 13 13 13 12 12 12 12 12 12 11 11 11 11 11 11 11 11 11 11 12 12 12 12 12 12 13
18 18 18 18 17 17 17 17 17 16 16 16 16 15 15 14 14 14 13 13 13 12 12 12 12 12 12 12 12 12 11 11 11 11 11 11 11 12 12 12 12 12 13
18 17 17 17 17 17 17 16 16 16 16 15 15 15 15 14 14 14 14 13 13 13 13 12 12 12 12 12 12 12 12 11 11 11 11 11 12 12 12 12 12 12 12
17 17 17 16 16 16 16 16 16 15 15 15 15 14 14 14 14 14 14 14 13 13 13 13 12 12 12 12 12 12 12 11 11 11 11 12 12 12 12 12 12 12 12
16 16 16 16 15 15 15 15 15 15 15 14 14 14 14 14 15 14 14 14 14 13 13 13 13 13 12 12 12 12 12 12 12 12 12 12 12 12 12 12 12 12 12
15 15 15 15 14 14 14 14 14 14 14 13 13 14 14 14 14 14 14 14 14 14 13 13 13 13 13 13 12 12 12 12 12 12 12 12 12 12 12 12 12 12 12
14 14 14 13 13 13 13 13 13 13 12 12 12 13 13 13 13 13 13 14 13 14 13 13 13 13 13 13 13 13 12 12 12 12 12 12 12 12 12 12 12 12 11
Wind_Speed
4 7 4 3 4 5 6 6 5 5 4 4 4 5 5 5 5 4 5 6 7 7 5 5 4 3 3 4 5 4 5 5 4 3 3 3 5 4 5 4 4 4 7
3 5 5 4 4 5 5 5 5 5 4 3 3 4 5 5 4 4 4 6 7 7 6 5 4 4 3 4 5 4 4 3 4 3 2 2 3 4 7 5 5 5 5
4 5 6 5 4 5 6 6 5 5 6 6 3 5 5 4 5 5 5 5 6 5 4 5 5 5 4 3 4 4 5 4 4 5 4 3 4 3 4 5 5 5 5
2 3 3 4 4 5 6 6 7 7 7 7 5 6 5 5 6 5 5 7 6 6 5 4 5 5 4 4 4 4 3 4 5 5 5 4 2 3 2 3 4 6 6
3 3 3 3 4 5 5 4 5 6 6 6 5 5 5 5 5 5 6 7 6 6 5 5 5 5 4 5 4 4 4 4 5 4 3 4 3 3 2 3 3 4 4
3 3 2 3 3 3 3 3 3 3 3 4 5 5 5 6 7 6 6 6 5 5 6 6 5 5 4 5 5 4 5 5 6 5 5 4 4 4 4 4 3 4 4
2 2 2 2 2 2 1 2 3 3 3 4 5 5 5 5 6 6 6 6 5 5 6 7 6 5 5 5 5 5 5 5 6 6 6 6 6 4 4 4 3 3 3
3 2 2 2 1 0 0 1 2 3 2 3 5 4 5 4 4 5 6 6 5 5 6 7 6 6 5 6 5 5 5 5 5 6 6 5 6 5 5 5 4 3 3
3 3 2 1 0 0 1 1 2 3 3 4 4 4 4 5 5 6 6 5 5 6 7 7 6 6 5 5 5 4 5 5 5 5 5 5 5 5 5 5 5 5 5
2 3 3 2 1 0 0 1 2 3 2 3 4 4 4 4 5 5 6 6 6 6 7 7 7 6 5 5 4 5 5 5 5 5 5 5 4 5 5 5 5 5 5
1 2 3 2 2 1 2 3 2 1 1 2 4 4 4 4 5 5 5 6 6 6 7 7 6 6 5 5 5 5 5 5 5 5 5 5 5 5 5 5 5 6 5
2 2 2 1 1 1 2 2 2 1 1 2 3 5 5 4 5 6 6 7 7 7 7 7 7 6 6 5 5 6 6 5 5 5 5 5 4 5 5 5 6 6 6
4 3 3 2 1 1 2 3 2 0 1 0 2 4 4 4 5 5 6 7 7 7 7 7 7 7 7 7 6 5 5 6 5 5 5 5 4 5 4 5 6 5 6
3 3 3 3 4 3 3 3 1 1 1 1 2 3 4 4 4 5 5 6 6 7 7 7 7 7 7 7 7 7 6 6 6 5 5 5 5 5 4 5 6 6 6
1 3 4 4 3 4 5 4 3 2 2 1 2 1 2 3 4 5 5 5 6 7 6 7 6 6 6 6 7 7 7 7 7 6 5 5 5 5 4 4 4 5 5
0 0 2 3 3 3 3 2 1 1 1 1 1 1 1 2 3 5 5 5 6 6 6 6 6 6 6 7 8 8 7 7 7 6 6 5 5 5 6 7 7 7 6
1 1 2 1 1 2 0 1 0 0 2 2 1 1 1 2 3 4 5 6 6 5 5 6 6 6 6 7 8 10 8 8 7 6 6 6 4 4 3 5 7 9 11
2 1 1 1 2 2 1 2 3 4 3 1 1 2 2 3 3 4 5 5 5 5 5 6 6 6 6 7 7 11 8 7 7 6 6 5 4 3 3 4 5 5 7
3 2 2 3 3 3 3 3 3 2 2 2 3 3 3 3 3 4 5 5 4 5 5 5 6 6 5 4 5 8 7 7 7 5 5 4 3 3 4 4 5 6 5
4 3 2 3 4 4 3 3 4 4 3 2 2 2 2 3 4 5 5 5 5 6 6 5 5 5 5 3 3 7 5 6 6 6 5 4 3 4 4 4 5 6 5
3 3 2 3 4 5 4 4 5 6 6 4 4 4 4 5 6 5 5 5 5 6 6 7 6 5 4 3 2 4 3 5 6 6 5 3 4 6 6 5 5 6 5
4 3 3 3 3 4 4 5 5 5 5 4 4 5 6 7 6 5 6 6 6 6 6 6 6 4 3 3 3 4 5 5 5 6 5 4 7 8 8 6 6 7 5
4 3 3 4 4 4 4 5 6 7 6 5 6 6 7 7 6 6 7 6 5 5 5 4 5 4 3 2 4 5 7 7 4 5 8 9 10 9 6 6 6 5 3
5 4 4 4 5 6 6 6 7 7 8 7 7 6 6 6 5 4 4 4 4 4 4 4 5 5 4 2 1 2 4 5 5 6 7 9 8 6 5 5 4 3 3
5 5 5 6 6 7 7 8 9 9 8 8 8 7 6 5 5 5 4 5 5 5 6 5 5 5 5 4 3 2 3 3 3 5 4 4 4 3 2 2 2 2 1
6 6 7 7 7 8 9 10 10 10 10 8 8 7 7 6 5 6 6 8 8 10 11 11 9 7 9 8 7 7 7 7 6 4 4 4 4 3 3 2 2 2 2
Wind_Direction
87 100 86 62 30 27 24 3 10 13 16 15 342 336 329 327 320 319 338 329 318 313 300 294 296 284 257 250 248 236 228 224 211 210 237 256 256 257 250 238 226 197 187
50 85 80 59 38 38 28 359 16 11 22 11 341 332 328 318 318 331 329 335 327 319 313 305 303 291 270 258 256 247 229 227 208 192 182 220 249 251 241 234 223 208 191
25 30 37 31 31 44 29 2 17 13 22 5 6 349 329 324 347 344 339 331 320 319 321 314 306 300 286 263 259 247 234 228 222 207 188 187 212 217 240 233 232 219 192
65 58 50 35 19 44 37 5 15 17 18 5 5 344 337 346 337 339 332 334 332 337 328 320 314 303 297 283 267 255 240 229 230 226 225 224 190 175 223 254 238 232 211
86 61 61 55 28 49 42 8 11 15 11 353 341 331 345 337 325 330 335 339 332 331 332 330 321 311 300 293 285 279 252 231 229 225 218 227 235 223 192 227 246 252 238
116 125 108 97 65 62 49 359 3 10 354 335 330 338 337 333 328 339 340 333 326 331 340 335 330 318 311 307 300 288 273 251 238 234 224 211 203 204 203 211 219 231 246
123 120 111 87 65 50 45 344 358 350 353 336 331 336 339 335 337 346 334 331 333 333 332 333 322 314 307 301 297 285 275 264 250 237 232 225 222 211 204 208 211 222 241
136 112 106 115 154 223 72 357 340 324 336 325 327 333 343 344 337 333 325 330 329 321 324 321 310 305 302 301 294 284 277 273 263 253 243 231 229 220 211 201 194 206 233
141 155 145 123 321 247 95 0 328 326 333 330 326 337 350 345 334 326 330 330 324 325 329 316 311 307 299 291 291 282 280 278 272 264 255 236 225 222 217 208 200 191 208
158 150 145 160 201 283 197 234 267 283 320 336 332 342 345 332 322 319 326 322 320 321 315 319 319 311 306 301 296 292 281 278 270 259 251 243 227 220 215 212 211 207 204
127 131 144 153 164 232 240 233 239 253 13 355 341 333 324 315 316 322 327 322 321 322 323 324 326 324 320 313 308 299 293 290 286 276 261 250 235 222 213 210 209 212 204
130 150 147 147 215 250 292 303 319 20 59 33 343 322 309 326 340 341 340 338 336 333 332 335 336 334 329 322 312 311 312 302 299 293 281 268 256 230 220 209 211 213 210
160 175 162 186 221 247 262 269 275 249 144 150 302 307 327 350 344 338 345 337 334 336 338 340 342 341 336 329 324 321 315 307 298 292 286 273 265 250 231 215 214 213 216
163 175 169 205 208 209 233 244 245 212 217 204 253 305 330 340 341 341 332 323 332 332 331 335 336 338 341 343 350 339 321 312 305 298 290 276 263 257 247 231 220 212 212
200 188 186 212 219 216 218 217 199 204 219 229 239 289 335 338 337 326 317 322 328 327 327 330 331 333 334 350 353 335 323 316 308 303 297 287 266 255 254 250 231 217 213
332 289 235 207 227 245 228 183 191 207 188 251 255 172 282 304 308 307 315 324 316 312 317 322 324 326 334 342 339 334 318 310 303 300 297 286 268 254 249 249 246 229 220
58 357 312 320 269 278 285 122 150 97 254 255 253 207 261 292 296 311 320 313 310 316 319 317 320 322 327 327 329 331 318 302 299 297 297 295 287 277 265 257 251 240 234
50 33 321 311 267 262 207 189 199 220 234 237 277 251 233 254 276 288 292 292 300 310 310 309 312 313 320 327 331 330 314 301 299 299 297 290 290 303 304 283 270 251 233
41 36 359 334 326 358 7 339 315 294 255 221 240 255 240 248 266 279 284 285 289 292 291 297 300 301 303 316 328 332 313 309 309 311 315 311 295 308 312 286 274 266 250
41 24 12 351 358 7 14 341 319 314 316 308 283 285 274 257 259 267 277 281 280 277 284 287 283 285 292 292 313 331 313 317 319 319 312 309 314 314 312 280 271 266 262
56 27 8 16 9 2 358 334 335 345 352 356 337 312 289 268 256 250 257 270 278 282 283 283 277 270 269 269 269 315 311 313 316 316 317 318 319 310 294 282 263 258 259
55 30 13 21 20 9 357 343 344 340 334 323 302 287 277 272 271 252 247 252 264 275 280 285 291 282 264 237 241 275 288 298 297 299 306 310 312 306 296 281 266 267 255
60 44 29 20 14 15 21 359 345 337 323 304 288 279 276 268 256 250 249 249 251 258 271 280 288 290 281 242 233 263 282 287 286 289 295 299 297 295 286 265 266 260 233
60 50 43 32 20 18 24 12 350 338 327 312 299 292 289 286 284 271 257 253 254 258 267 275 282 287 287 290 277 282 293 296 298 299 302 299 289 278 271 271 259 240 226
64 56 43 27 20 18 20 13 358 346 335 326 326 321 315 311 304 295 278 271 259 247 248 255 262 276 282 273 266 261 277 300 315 322 312 306 299 287 271 257 241 224 208
65 62 52 35 27 25 22 13 360 351 344 341 343 340 333 326 317 308 304 281 271 266 254 248 250 260 257 263 262 266 273 286 300 312 293 295 293 288 277 264 244 216 196
Height
1530 1531 1531 1532 1532 1531 1529 1527 1525 1523 1520 1518 1515 1513 1511 1510 1508 1507 1506 1504 1502 1502 1501 1501 1501 1501 1501 1502 1503 1504 1505 1507 1509 1512 1513 1514 1516 1518 1520 1522 1524 1526 1528
1529 1530 1530 1531 1530 1529 1528 1526 1524 1522 1519 1517 1515 1513 1511 1509 1508 1506 1504 1502 1501 1499 1499 1498 1498 1498 1498 1499 1499 1500 1502 1503 1505 1507 1509 1511 1513 1513 1515 1518 1520 1522 1524
1528 1529 1530 1530 1529 1528 1526 1525 1523 1522 1519 1517 1514 1512 1510 1508 1507 1505 1503 1501 1499 1498 1497 1496 1495 1495 1496 1496 1496 1497 1498 1499 1501 1504 1506 1507 1507 1509 1511 1513 1516 1518 1520
1527 1528 1529 1529 1528 1527 1525 1524 1523 1521 1518 1516 1513 1511 1509 1507 1506 1504 1501 1499 1498 1496 1495 1494 1493 1493 1493 1493 1494 1494 1495 1496 1497 1500 1502 1504 1504 1506 1507 1509 1511 1514 1516
1526 1527 1527 1527 1527 1526 1524 1523 1521 1519 1517 1515 1513 1511 1509 1507 1505 1503 1500 1498 1496 1495 1493 1492 1491 1491 1490 1491 1491 1491 1492 1492 1493 1495 1497 1499 1501 1502 1504 1505 1507 1509 1511
1524 1525 1526 1526 1525 1524 1523 1522 1520 1518 1516 1514 1512 1510 1508 1506 1504 1502 1499 1497 1495 1493 1492 1490 1489 1488 1488 1488 1488 1488 1488 1489 1490 1491 1492 1494 1496 1498 1500 1502 1503 1505 1507
1523 1524 1524 1524 1524 1523 1522 1521 1519 1518 1516 1514 1512 1510 1508 1505 1503 1501 1498 1496 1494 1492 1490 1488 1487 1486 1485 1485 1485 1485 1485 1485 1486 1487 1488 1490 1492 1494 1497 1499 1500 1501 1503
1522 1522 1523 1523 1523 1522 1521 1520 1518 1517 1515 1513 1511 1509 1507 1505 1502 1500 1498 1495 1493 1491 1489 1487 1485 1484 1483 1482 1482 1481 1481 1482 1482 1483 1484 1485 1487 1490 1492 1494 1496 1498 1499
1520 1521 1521 1522 1521 1521 1520 1519 1518 1516 1514 1512 1510 1508 1506 1503 1501 1499 1497 1494 1492 1490 1487 1485 1483 1482 1481 1479 1479 1478 1478 1478 1479 1479 1480 1481 1482 1484 1487 1489 1491 1494 1495
1518 1519 1520 1520 1520 1520 1519 1517 1516 1515 1513 1511 1510 1508 1505 1503 1500 1498 1495 1493 1491 1488 1486 1484 1482 1480 1478 1477 1476 1476 1475 1475 1475 1476 1476 1477 1478 1479 1481 1484 1486 1488 1491
1517 1518 1518 1518 1518 1518 1517 1516 1515 1514 1512 1510 1508 1506 1504 1502 1499 1497 1495 1492 1490 1487 1485 1483 1480 1478 1476 1475 1474 1473 1473 1472 1472 1472 1473 1473 1474 1475 1477 1479 1481 1483 1486
1515 1516 1517 1517 1517 1517 1516 1516 1515 1513 1511 1509 1507 1505 1503 1501 1499 1496 1494 1491 1489 1486 1484 1481 1479 1477 1475 1474 1472 1471 1470 1470 1469 1469 1470 1470 1471 1472 1473 1474 1476 1478 1480
1513 1515 1515 1516 1516 1515 1515 1514 1513 1512 1510 1508 1506 1504 1503 1500 1498 1495 1493 1490 1488 1485 1483 1480 1478 1475 1473 1472 1470 1469 1468 1467 1467 1467 1467 1467 1468 1468 1469 1470 1471 1473 1475
1512 1513 1513 1514 1514 1514 1513 1513 1512 1511 1509 1507 1505 1503 1502 1499 1497 1494 1492 1489 1487 1484 1482 1479 1477 1474 1472 1470 1468 1467 1466 1465 1464 1464 1464 1464 1464 1465 1465 1466 1467 1469 1471
1511 1511 1512 1512 1512 1512 1511 1511 1510 1509 1508 1506 1505 1503 1501 1499 1496 1493 1491 1488 1486 1483 1481 1478 1475 1473 1471 1469 1467 1465 1463 1462 1462 1462 1461 1461 1461 1461 1462 1462 1463 1465 1466
1509 1510 1510 1510 1511 1511 1510 1510 1509 1508 1507 1505 1504 1502 1499 1497 1495 1493 1490 1487 1485 1482 1480 1477 1474 1472 1470 1468 1465 1463 1461 1460 1459 1458 1458 1458 1457 1457 1458 1458 1459 1461 1462
1508 1508 1509 1509 1509 1509 1509 1508 1507 1507 1505 1504 1503 1501 1498 1496 1494 1491 1489 1486 1484 1481 1479 1476 1473 1471 1468 1466 1464 1461 1459 1457 1456 1456 1455 1455 1454 1454 1454 1454 1455 1456 1457
1507 1507 1507 1508 1508 1507 1507 1506 1506 1505 1504 1502 1501 1499 1497 1495 1492 1490 1487 1485 1483 1480 1477 1475 1472 1469 1467 1464 1462 1460 1457 1455 1454 1453 1452 1452 1451 1451 1451 1451 1451 1452 1453
1506 1506 1506 1506 1506 1506 1506 1505 1505 1504 1502 1500 1499 1497 1495 1493 1491 1488 1486 1484 1481 1479 1476 1474 1471 1468 1466 1463 1461 1458 1455 1454 1452 1451 1450 1449 1448 1448 1448 1447 1447 1448 1448
1504 1505 1505 1505 1505 1504 1504 1503 1503 1502 1500 1498 1497 1495 1493 1491 1489 1487 1484 1482 1480 1477 1475 1472 1470 1467 1465 1462 1459 1457 1454 1452 1450 1449 1448 1446 1445 1445 1444 1444 1443 1443 1444
1503 1503 1504 1504 1503 1503 1502 1501 1501 1499 1498 1496 1494 1492 1490 1489 1486 1484 1482 1480 1478 1476 1473 1471 1468 1466 1463 1461 1458 1455 1453 1450 1448 1446 1445 1443 1442 1441 1440 1440 1439 1439 1440
1502 1502 1502 1502 1501 1501 1500 1499 1498 1496 1495 1493 1491 1489 1487 1485 1484 1482 1480 1478 1476 1473 1471 1469 1467 1465 1462 1459 1457 1454 1452 1449 1447 1444 1442 1441 1439 1438 1437 1436 1436 1436 1436
1500 1500 1500 1500 1500 1499 1498 1497 1495 1494 1492 1490 1487 1485 1484 1482 1480 1478 1476 1475 1473 1471 1469 1467 1465 1462 1460 1458 1455 1453 1450 1447 1445 1442 1440 1438 1437 1435 1434 1434 1433 1433 1432
1499 1499 1499 1498 1498 1497 1495 1494 1492 1490 1488 1486 1484 1482 1480 1479 1477 1475 1473 1472 1470 1468 1466 1464 1462 1460 1458 1456 1453 1450 1448 1446 1443 1441 1438 1437 1435 1434 1433 1432 1431 1430 1430
1497 1497 1497 1496 1496 1495 1493 1491 1489 1487 1485 1483 1481 1479 1477 1475 1473 1471 1470 1468 1467 1466 1464 1461 1460 1457 1455 1453 1451 1449 1446 1444 1442 1439 1437 1435 1434 1432 1431 1430 1429 1429 1428
1495 1495 1495 1494 1493 1492 1490 1488 1487 1485 1483 1480 1478 1476 1474 1472 1470 1468 1466 1464 1463 1461 1460 1458 1456 1454 1452 1450 1448 1447 1445 1443 1441 1438 1436 1434 1433 1432 1431 1429 1428 1427 1427